696  
ASUS43 KJKL 180110  
RWRJKL  
 
EAST KENTUCKY HOURLY WEATHER ROUNDUP  
NATIONAL WEATHER SERVICE JACKSON KY  
800 PM EST SUN DEC 17 2017  
 
NOTE: "FAIR" INDICATES FEW OR NO CLOUDS BELOW 12,000 FEET WITH  
NO SIGNIFICANT WEATHER AND/OR S TO VISIBILITY
.  
 
* THESE REPORTS ARE NOT UNDER NWS QUALITY CONTROL AND MAY NOT  
REPORT WEATHER SUCH AS PRECIPITATION AND FOG.
 
 
KYZ079-080-083-085-087-088-110-112-115-119-120-180200   
..EASTERN KENTUCKY
 
 
 
CITY SKY/WX TMP DP RH WIND PRES REMARKS
 
JACKSON CLOUDY 39 37 92 CALM 30.14R  
LONDON CLOUDY 42 36 79 CALM 30.14R  
SOMERSET* CLOUDY 41 34 75 CALM 30.16R  
MONTICELLO* CLOUDY 43 38 82 NE8 30.17R  
WILLIAMSBURG* CLOUDY 41 37 87 SE3 30.15R  
MIDDLESBORO* CLOUDY 42 38 85 S10 30.17R  
HARLAN APT* CLOUDY 41 34 75 CALM 30.15R  
PIKE CO APT* CLOUDY 37 37 100 CALM 30.14R  
BIG SANDY APT* CLOUDY 38 38 100 CALM 30.15R  
MOREHEAD APT* CLOUDY 39 37 93 CALM 30.16R FOG  

 
 
KYZ035-036-041-042-044-050-067-078-099-180200   
..CENTRAL KENTUCKY
 
 
 
CITY SKY/WX TMP DP RH WIND PRES REMARKS
 
MT STERLING* CLOUDY 37 37 100 CALM 30.16R FOG  
FLEMING/MASON* CLOUDY 38 38 99 S5 30.15R WCI 35  
DANVILLE* CLOUDY 39 37 93 S5 30.14S FOG  
LEXINGTON CLOUDY 41 38 89 S7 30.13F FOG  
FRANKFORT CLOUDY 41 38 89 SE6 30.12S  
LOUISVILLE CLOUDY 44 40 85 S6 30.14R  
LEBANON* CLOUDY 41 39 93 S5 30.13S  
GLASGOW* CLOUDY 42 42 100 CALM 30.15R  
BOWLING GREEN CLOUDY 44 44 100 SE3 30.15R FOG  

 
 
KYZ091>093-OHZ055-061-077-WVZ005-015-034-035-042-180200   
..SOUTHERN OHIO/WEST VIRGINIA
 
 
 
CITY SKY/WX TMP DP RH WIND PRES REMARKS
 
COVINGTON CLOUDY 43 34 70 S10 30.09S  
COLUMBUS CLOUDY 40 33 76 SE5 30.10S  
DAYTON CLOUDY 40 35 83 S7 30.09S  
WILMINGTON CLOUDY 40 33 76 S6 30.10R  
HUNTINGTON CLOUDY 39 37 92 CALM 30.14S FOG  
CHARLESTON DRIZZLE 40 35 83 CALM 30.15F  
PINEVILLE* CLOUDY 37 36 97 MISG 30.17F FOG  
BECKLEY CLOUDY 36 33 89 SE7 30.10F WCI 30  
BLUEFIELD CLOUDY 35 27 72 SE3 30.12S  
LOGAN CO APT* CLOUDY 37 36 93 CALM 30.13R  

 
 
VAZ002-007-008-TNZ017-027-036-066-071-180200   
..SOUTHWEST VIRGINIA/EAST TENNESSEE
 
 
 
CITY SKY/WX TMP DP RH WIND PRES REMARKS
 
WISE* CLOUDY 41 36 81 SW12 30.13R  
JONESVILLE* CLOUDY 39 39 100 CALM 30.19R  
ABINGDON* CLOUDY 42 37 83 CALM 30.15S  
BRISTOL CLOUDY 41 39 93 CALM 30.17R  
MORRISTOWN* CLOUDY 41 37 87 VRB3 30.18R  
SEVIERVILLE* CLOUDY 41 39 93 CALM 30.20R  
KNOXVILLE CLOUDY 41 41 100 S3 30.19R  
OAK RIDGE CLOUDY 43 40 89 SW3 30.20R  
CROSSVILLE CLOUDY 41 40 96 VRB5 30.15S FOG  
NASHVILLE CLOUDY 47 45 93 S5 30.15R FOG  

 
   
..KEY TO REMARKS
 
 
VSB - VISIBILITY IN MILES  
WCI - WIND CHILL INDEX  
HX - HEAT INDEX  
 

 
 
 
CLICK HERE TO GO TO PREVIOUS BULLETINS.

The Nexlab KY Page Main Text Page